Holyoke AP, Holyoke, CO, CO

5:59 PM MST on January 23, 2018 (GMT -0700)
Holyoke Municipal

Weather History for KHEQ - April, 2014

Change the Weather History Date:

Sunday, April 13, 2014

  Actual Average Record
Temperature  
Mean Temperature 42 °F -  
Max Temperature 53 °F 59 °F 78 °F (2016)
Min Temperature 30 °F 32 °F 30 °F (2014)
Degree Days  
Heating Degree Days 24    
Moisture  
Dew Point 29 °F    
Average Humidity 79    
Maximum Humidity 93    
Minimum Humidity 41    
Precipitation  
Precipitation 0.00 in - - ()
Sea Level Pressure  
Sea Level Pressure 29.95 in    
Wind  
Wind Speed 25 mph (North)    
Max Wind Speed 32 mph    
Max Gust Speed 43 mph    
Visibility 7 miles    
Events Rain , Snow , Thunderstorm    
Averages and records for this station are not official NWS values.
T = Trace of Precipitation, MM = Missing Value Source: NWS Daily Summary

Daily Weather History Graph

Daily Weather History Graph

Search for Another Location

Airport or City:

Trip Planner

Search our weather history database for the weather conditions in past years. The results will help you decide how hot, cold, wet, or windy it might be!

Date:

Astronomy

Apr. 13, 2014 Rise Set
Actual Time 6:13 AM MDT 7:26 PM MDT
Civil Twilight 5:45 AM MDT 7:54 PM MDT
Nautical Twilight 5:11 AM MDT 8:28 PM MDT
Astronomical Twilight 4:36 AM MDT 9:03 PM MDT
Moon 6:06 PM MDT (4/13) 5:13 AM MDT (4/13)
Length of Visible Light 14h 09m
Length of Day
13h 12m
Waxing Gibbous, 97% of the Moon is Illuminated
Apr 13
Waxing Gibbous
Apr 15
Full
Apr 22
Last Quarter
Apr 29
New
May 6
First Quarter

Hourly Weather History & Observations

Time (MDT) Temp. Windchill Dew Point Humidity Pressure Visibility Wind Dir Wind Speed Gust Speed Precip Events Conditions
12:15 AM 53.6 °F - 30.2 °F 41% 29.74 in 10.0 mi NNE 21.9 mph 25.3 mph N/A   Scattered Clouds
12:35 AM 53.6 °F - 32.0 °F 44% 29.75 in 10.0 mi NNE 17.3 mph 21.9 mph N/A   Mostly Cloudy
12:55 AM 51.8 °F - 32.0 °F 47% 29.76 in 10.0 mi NNE 18.4 mph 25.3 mph N/A   Mostly Cloudy
1:15 AM 51.8 °F - 32.0 °F 47% 29.75 in 10.0 mi NE 19.6 mph 28.8 mph N/A   Mostly Cloudy
1:35 AM 51.8 °F - 32.0 °F 47% 29.76 in 10.0 mi NE 25.3 mph 28.8 mph N/A   Overcast
1:55 AM 48.2 °F - 32.0 °F 54% 29.76 in 10.0 mi NE 24.2 mph 31.1 mph N/A   Overcast
2:15 AM 48.2 °F - 32.0 °F 54% 29.74 in 10.0 mi NE 28.8 mph 34.5 mph N/A   Overcast
2:35 AM 46.4 °F 37.9 °F 32.0 °F 57% 29.74 in 10.0 mi NE 25.3 mph 33.4 mph N/A   Overcast
2:55 AM 46.4 °F 38.1 °F 32.0 °F 57% 29.74 in 10.0 mi NNE 24.2 mph 31.1 mph N/A   Overcast
3:15 AM 46.4 °F 38.3 °F 33.8 °F 62% 29.76 in 10.0 mi NNE 23.0 mph 29.9 mph N/A Thunderstorm Overcast
3:35 AM 46.4 °F 37.2 °F 33.8 °F 62% 29.77 in 10.0 mi NNE 29.9 mph 36.8 mph N/A   Overcast
3:55 AM 44.6 °F 34.6 °F 33.8 °F 66% 29.77 in 10.0 mi NNE 31.1 mph 42.6 mph N/A   Overcast
4:15 AM 42.8 °F 33.1 °F 33.8 °F 70% 29.78 in 10.0 mi NNE 25.3 mph 33.4 mph N/A Thunderstorm Mostly Cloudy
4:35 AM 42.8 °F 32.3 °F 33.8 °F 70% 29.78 in 10.0 mi NNE 29.9 mph 35.7 mph N/A   Overcast
4:55 AM 41.0 °F 30.7 °F 33.8 °F 76% 29.78 in 10.0 mi NNE 25.3 mph 38.0 mph N/A   Overcast
5:15 AM 41.0 °F 29.5 °F 33.8 °F 76% 29.79 in 10.0 mi NNE 32.2 mph 40.3 mph N/A   Overcast
5:35 AM 41.0 °F 30.0 °F 33.8 °F 76% 29.79 in 10.0 mi NNE 28.8 mph 39.1 mph N/A   Overcast
5:55 AM 37.4 °F 24.8 °F 32.0 °F 81% 29.80 in 10.0 mi NNE 31.1 mph 40.3 mph N/A   Overcast
6:15 AM 37.4 °F 24.6 °F 33.8 °F 87% 29.81 in 5.0 mi NNE 32.2 mph 39.1 mph N/A Rain Light Rain
6:35 AM 35.6 °F 23.4 °F 32.0 °F 87% 29.82 in 2.5 mi North 25.3 mph 34.5 mph N/A Rain Light Rain
6:55 AM 35.6 °F 23.7 °F 33.8 °F 93% 29.83 in 2.5 mi North 24.2 mph 32.2 mph N/A Snow Light Snow
7:15 AM 35.6 °F 24.0 °F 33.8 °F 93% 29.86 in 1.5 mi North 23.0 mph 32.2 mph N/A Snow Light Snow
7:35 AM 33.8 °F 21.0 °F 32.0 °F 93% 29.87 in 0.5 mi North 25.3 mph 34.5 mph N/A Snow , Thunderstorm Snow
7:55 AM 33.8 °F 21.6 °F 32.0 °F 93% 29.88 in 0.5 mi North 23.0 mph 32.2 mph N/A Snow Snow
8:15 AM 33.8 °F 23.2 °F 32.0 °F 93% 29.90 in 0.2 mi North 17.3 mph 29.9 mph N/A Snow Snow
8:35 AM 33.8 °F 20.3 °F 32.0 °F 93% 29.89 in 0.2 mi North 28.8 mph 34.5 mph N/A Snow Heavy Snow
8:55 AM 33.8 °F 20.3 °F 32.0 °F 93% 29.89 in 0.2 mi North 28.8 mph 34.5 mph N/A Snow Heavy Snow
9:25 AM 33.8 °F 20.3 °F 32.0 °F 93% 29.89 in - North 28.8 mph 35.7 mph N/A   Overcast
10:35 AM 33.8 °F 20.3 °F 32.0 °F 93% 29.92 in - North 28.8 mph 35.7 mph N/A   Overcast
10:55 AM 32.0 °F 18.9 °F 28.4 °F 87% 29.92 in - North 24.2 mph 35.7 mph N/A   Overcast
11:15 AM 32.0 °F 19.2 °F 28.4 °F 87% 29.94 in - North 23.0 mph 31.1 mph N/A   Overcast
11:35 AM 33.8 °F 21.9 °F 30.2 °F 87% 29.95 in - North 21.9 mph 29.9 mph N/A   Overcast
11:55 AM 32.0 °F 17.6 °F 28.4 °F 87% 29.95 in - North 29.9 mph 33.4 mph N/A   Overcast
12:15 PM 32.0 °F 17.9 °F 30.2 °F 93% 29.95 in - North 28.8 mph 34.5 mph N/A   Overcast
12:35 PM 32.0 °F 18.4 °F 28.4 °F 87% 29.95 in - North 26.5 mph 36.8 mph N/A   Overcast
12:55 PM 33.8 °F 20.5 °F 30.2 °F 87% 29.95 in - North 27.6 mph 34.5 mph N/A   Overcast
1:15 PM 32.0 °F 17.9 °F 28.4 °F 87% 29.95 in - North 28.8 mph 35.7 mph N/A   Overcast
1:35 PM 33.8 °F 20.5 °F 28.4 °F 81% 29.96 in - North 27.6 mph 33.4 mph N/A   Overcast
1:55 PM 33.8 °F 20.3 °F 28.4 °F 81% 29.96 in - North 28.8 mph 33.4 mph N/A   Overcast
2:15 PM 32.0 °F 17.4 °F 28.4 °F 87% 29.96 in - North 31.1 mph 36.8 mph N/A   Overcast
2:35 PM 32.0 °F 18.1 °F 26.6 °F 80% 29.96 in - North 27.6 mph 35.7 mph N/A   Overcast
2:55 PM 32.0 °F 17.4 °F 26.6 °F 80% 29.98 in - North 31.1 mph 36.8 mph N/A   Overcast
3:15 PM 30.2 °F 15.7 °F 26.6 °F 86% 29.97 in - North 27.6 mph 35.7 mph N/A   Overcast
3:35 PM 32.0 °F 17.6 °F 28.4 °F 87% 29.97 in - North 29.9 mph 34.5 mph N/A   Unknown
3:55 PM 30.2 °F 16.8 °F 24.8 °F 80% 29.98 in - North 23.0 mph 35.7 mph N/A   Overcast
4:15 PM 32.0 °F 18.1 °F 26.6 °F 80% 29.98 in - North 27.6 mph 34.5 mph N/A   Overcast
4:35 PM 30.2 °F 15.7 °F 24.8 °F 80% 30.00 in - North 27.6 mph 35.7 mph N/A   Overcast
4:55 PM 30.2 °F 15.4 °F 24.8 °F 80% 30.01 in - North 28.8 mph 35.7 mph N/A   Overcast
5:15 PM 30.2 °F 15.7 °F 24.8 °F 80% 30.03 in - North 27.6 mph 38.0 mph N/A   Overcast
5:35 PM 30.2 °F 16.5 °F 26.6 °F 86% 30.05 in - North 24.2 mph 38.0 mph N/A   Overcast
5:55 PM 30.2 °F 17.4 °F 24.8 °F 80% 30.06 in - North 20.7 mph 31.1 mph N/A   Overcast
6:15 PM 30.2 °F 15.9 °F 26.6 °F 86% 30.07 in - North 26.5 mph - N/A   Overcast
6:35 PM 30.2 °F 16.2 °F 26.6 °F 86% 30.08 in - NNW 25.3 mph 33.4 mph N/A   Overcast
6:55 PM 30.2 °F 16.2 °F 26.6 °F 86% 30.09 in - North 25.3 mph 31.1 mph N/A   Overcast
7:15 PM 30.2 °F 15.7 °F 26.6 °F 86% 30.09 in - North 27.6 mph 34.5 mph N/A   Overcast
7:35 PM 30.2 °F 15.7 °F 26.6 °F 86% 30.10 in - North 27.6 mph 34.5 mph N/A   Overcast
7:55 PM 30.2 °F 16.2 °F 26.6 °F 86% 30.11 in - North 25.3 mph 32.2 mph N/A   Unknown
8:15 PM 30.2 °F 16.2 °F 26.6 °F 86% 30.13 in - North 25.3 mph 33.4 mph N/A   Unknown
8:35 PM 30.2 °F 15.9 °F 26.6 °F 86% 30.14 in - North 26.5 mph 34.5 mph N/A   Unknown
8:55 PM 30.2 °F 16.8 °F 26.6 °F 86% 30.15 in - North 23.0 mph 31.1 mph N/A   Unknown
9:15 PM 30.2 °F 17.1 °F 26.6 °F 86% 30.15 in - NNW 21.9 mph 28.8 mph N/A   Overcast
9:35 PM 30.2 °F 15.9 °F 26.6 °F 86% 30.16 in - North 26.5 mph 31.1 mph N/A   Unknown
9:55 PM 30.2 °F 15.9 °F 26.6 °F 86% 30.16 in - North 26.5 mph 32.2 mph N/A   Unknown
10:15 PM 30.2 °F 17.1 °F 24.8 °F 80% 30.17 in - NNW 21.9 mph 27.6 mph N/A   Overcast
10:35 PM 30.2 °F 17.1 °F 24.8 °F 80% 30.18 in - NNW 21.9 mph 28.8 mph N/A   Overcast
10:55 PM 30.2 °F 17.1 °F 23.0 °F 75% 30.17 in - NNW 21.9 mph 26.5 mph N/A   Overcast
11:15 PM 32.0 °F 20.1 °F 23.0 °F 69% 30.18 in - NNW 19.6 mph - N/A   Overcast
11:35 PM 30.2 °F 18.1 °F 23.0 °F 75% 30.18 in - NNW 18.4 mph - N/A   Overcast
11:55 PM 32.0 °F 19.5 °F 23.0 °F 69% 30.18 in - NNW 21.9 mph 26.5 mph N/A   Overcast